Other Public Products
Issued by NWS Grand Forks, ND

Home | Current Version | Previous Version | Graphics & Text | Print | Product List | Glossary On
Versions: 1 2 3 4 5 6 7 8 9 10 11 12 13 14 15 16 17 18 19 20 21 22 23 24 25 26 27 28 29 30 31 32 33 34 35 36 37 38 39 40 41 42 43 44 45 46 47 48 49 50
809
FPUS83 KFGF 232310
OPUFGF
PRAIRIE TO PINES WEATHER ROUNDUP
NATIONAL WEATHER SERVICE EASTERN NORTH DAKOTA/GRAND FORKS ND
600 PM CDT TUE MAY 23 2017

 **SATELLITE DATA USED TO AUGMENT SKY COVER AT AUTOMATED STATIONS**
 *****  WEATHER ACROSS EASTERN NORTH DAKOTA  *****

CITY           SKY/WX    TMP DP  RH WIND       PRES   REMARKS
GRAND FORKS    PTSUNNY   62  42  47 NE12      29.96F
GRAND FORKS AF CLOUDY    61  42  48 NE12      29.97F
GRAND CITY NWS NOT AVBL
BUXTON         NOT AVBL
DEVILS LAKE    FAIR      62  38  40 NE12      30.00F
FARGO          PTSUNNY   58  44  60 NE21      29.94S
WAHPETON ARPT  FAIR      57  43  58 N18       29.92S
$$

 *****  WEATHER ACROSS CENTRAL AND WESTERN NORTH DAKOTA  *****

CITY           SKY/WX    TMP DP  RH WIND       PRES   REMARKS
JAMESTOWN      CLOUDY    58  41  53 NE20      29.98F
BISMARCK       PTSUNNY   67  35  30 NE14G20   30.01F
MINOT          FAIR      69  31  24 NE13      30.00F
MINOT AFB      FAIR      69  32  25 N6        29.99F
GARRISON         N/A     66  34  30 NE9G17    30.01F
WILLISTON      FAIR      71  29  21 SE9       30.00F
DICKINSON      FAIR      61  31  32 E6        30.02F
HETTINGER      FAIR      65  33  30 N8G16     30.04F
$$

 *****  OTHER OBSERVATIONS NORTHEAST NORTH DAKOTA  *****

CITY           SKY/WX    TMP DP  RH WIND       PRES   REMARKS
WALHALLA       NOT AVBL
LANGDON        FAIR      66  39  37 NE13      30.00S
CAVALIER       FAIR      66  37  34 E7G15     29.97F
GRAFTON        MOCLDY    63  41  45 NE12      29.99S
CANDO          NOT AVBL
FORT TOTTEN      N/A     61  38  42 E7        29.95S
ROLLA          FAIR      64  30  27 NE7       30.01F
RUGBY          NOT AVBL
 ***** THE ABOVE OBSERVATIONS ARE NON NWS ARE NOT QUALITY
        CONTROLLED AND MAY MIS-REPORT RAIN FOR SNOW...
$$

 *****  OTHER OBSERVATIONS SOUTHEAST NORTH DAKOTA *****

CITY           SKY/WX    TMP DP  RH WIND       PRES   REMARKS
COOPERSTOWN    MOCLDY    57  41  54 NE18G25   29.99S
VALLEY CITY    CLOUDY    55  45  67 NE12G22   29.99S
OAKES          NOT AVBL
GWINNER        MOCLDY    57  45  62 MISG      29.95S
SHEYENNE NWR     N/A     56  43  62 NE13      29.95S
BUFFALO        NOT AVBL
WYNDMERE         N/A     55  46  71 N17         N/A
 ***** THE ABOVE OBSERVATIONS ARE NON NWS ARE NOT QUALITY
       CONTROLLED AND MAY MIS-REPORT RAIN FOR SNOW...
$$

  *****  WEATHER ACROSS NORTHERN MINNESOTA  *****

CITY           SKY/WX    TMP DP  RH WIND       PRES   REMARKS
FLAG ISLAND    FAIR      63  34  34 NE9G16    29.94F
WARROAD        FAIR      61  46  59 E7        29.97F
ROSEAU         FAIR      63  43  48 E13       29.96S
HALLOCK        PTSUNNY   66  34  30 E9G16     29.96F
THF RVR FALLS  CLOUDY    57  42  57 NE10      29.97R
HALSTAD          N/A     56  46  69 NE12        N/A
FOSSTON        CLOUDY    54  46  76 NE10G20   29.96R
BAUDETTE       CLOUDY    60  41  49 NE10      29.95F
WASKISH        CLOUDY    55  45  67 NE10      29.95S
CROOKSTON      CLOUDY    59  43  55 NE12      29.97S
$$
  *****  WEATHER ACROSS CENTRAL AND WEST MINNESOTA  *****

CITY           SKY/WX    TMP DP  RH WIND       PRES   REMARKS
BEMIDJI        PTSUNNY   56  43  63 NE10      29.92F
PARK RAPIDS    CLOUDY    54  43  66 NE13G21   29.91S
WADENA         CLOUDY    54  46  76 N9        29.89S
DETROIT LAKES  CLOUDY    52  45  76 NE9       29.94S
MOORHEAD       CLOUDY    55  45  67 NE16      29.95S
FERGUS FALLS   CLOUDY    55  45  67 NE8G16    29.89S
ELBOW LAKE     CLOUDY    55  45  69 NE14G21   29.89S
MORRIS MN      CLOUDY    55  46  71 NE3       29.87S
STAPLES        CLOUDY    55  45  67 N13       29.89S
WHEATON        CLOUDY    55  46  71 N13G21    29.92S
$$
  *****  WEATHER ELSEWHERE ACROSS MINNESOTA  *****

CITY           SKY/WX    TMP DP  RH WIND       PRES   REMARKS
DULUTH         PTSUNNY   51  45  79 E9        29.88R
INTRNTL FALLS  LGT RAIN  54  42  64 NE10      29.94S
ELY            CLOUDY    52  43  71 NE9       29.89F
CLOQUET        LGT RAIN  50  43  76 E7        29.88S
BRAINERD       PTSUNNY   57  45  64 N17G25    29.88R
HIBBING        CLOUDY    52  44  74 N13G18    29.89R
ALEXANDRIA     FAIR      58  44  60 N10       29.88S
SAINT CLOUD    PTSUNNY   59  45  59 NE10      29.84S
MINNEAPOLIS    LGT RAIN  59  46  62 E9        29.80R
$$

  *****  WEATHER ACROSS SOUTH DAKOTA  *****

CITY           SKY/WX    TMP DP  RH WIND       PRES   REMARKS
SIOUX FALLS    CLOUDY    55  47  74 NE21G26   29.86R
BROOKINGS      LGT RAIN  51  47  86 N18       29.88S
WATERTOWN      CLOUDY    52  46  80 N14       29.89S
HURON          CLOUDY    53  45  74 N15       29.95R
SISSETON         N/A     56  47  71 N21       29.91S
ABERDEEN       CLOUDY    55  41  59 NE18      29.97R
MITCHELL       CLOUDY    55  45  68 N21       29.93S
PIERRE         CLOUDY    55  39  54 N18       30.00S
MOBRIDGE       CLOUDY    61  35  37 NE15G29   29.98F
RAPID CITY     FAIR      64  34  32 N17G28    30.04F
$$

  *****  SOME WEATHER IN NEARBY STATES *****

CITY           SKY/WX    TMP DP  RH WIND       PRES   REMARKS
GLASGOW MT     FAIR      71  30  21 S14       29.93F
GREAT FALLS MT FAIR      79  43  27 S15       29.85F
CHEYENNE WY    FAIR      57  30  35 N15G26    30.13F
SCOTTSBLUFF NE PTSUNNY   63  31  30 N21G28    30.05F
OMAHA NE       LGT RAIN  54  47  77 NW17      29.83S
DES MOINES IA  LGT RAIN  57  49  74 N10       29.76S
DAVENPORT IA   CLOUDY    56  51  84 NW20      29.71S
CHICAGO IL     LGT RAIN  59  55  87 SE10      29.70F FOG
EAU CLAIRE WI  CLOUDY    57  45  64 N7        29.76S
LA CROSSE WI   LGT RAIN  58  53  84 N3        29.73R
$$

  *****  SOME NATIONAL WEATHER *****

CITY           SKY/WX    TMP DP  RH WIND       PRES   REMARKS
LA GUARDIA NY  CLOUDY    69  47  45 CALM      29.82F
RALEIGH NC     DRIZZLE   68  66  93 NE6       29.69F
ATLANTA GA     FAIR      73  64  73 S10       29.68F
NEW ORLEANS LA FAIR      83  67  58 NW6       29.71S
OKLAHOMA CITY  PTSUNNY   67  42  40 N16       29.89S
ALBUQUERQUE NM FAIR      78  13   8 NW22G31   30.02F
SALT LAKE CITY FAIR      81  36  19 NE7       30.07F
LOS ANGELES CA FAIR      67  57  70 W10       29.92F
BOISE ID       FAIR      86  40  19 W9        29.98F
SEATTLE WA     FAIR      77  52  41 SW13      29.95F
$$

*** WEATHER ACROSS MANITOBA...SASKATCHEWAN AND ONTARIO ***
                ***ONTARIO***

CITY           SKY/WX    TMP DP  RH WIND       PRES   REMARKS
GERALDTON      PTSUNNY   55  41  58 NE8       29.92R
THUNDER BAY    PTSUNNY   55  43  62 E5        29.89R
SIOUX LOOKOUT  PTSUNNY   61  39  44 SE3       29.94S
TORONTO        PTSUNNY   64  55  72 SE5       29.77F
BIG TROUT LK   SUNNY     57  25  28 SW5       29.99F
PICKLE LAKE    MOSUNNY   59  27  29 NE9       29.95F
DRYDEN         PTSUNNY   61  37  41 E8        29.93F
KENORA         PTSUNNY   64  32  29 NE6       29.94F
$$
                *** MANITOBA***

CITY           SKY/WX    TMP DP  RH WIND       PRES   REMARKS
BRANDON        MOSUNNY   68  34  28 SE7       29.99F
DAUPHIN        MOSUNNY   72  37  28 SE9G17    29.93F
ISLAND LAKE    MOSUNNY   68  25  19 SE5       29.94F
PILOT MOUND      N/A     64  30  27 NE9         N/A
THE PAS        CLOUDY    70  39  32 MISG      29.82F
THOMPSON       CLOUDY    70  32  24 S13G22    29.81F
WINNIPEG       MOSUNNY   68  34  28 N10       29.97F
LYNN LAKE      LGT RAIN  61  45  55 S10G21    29.70F
CHURCHILL      PTSUNNY   50  37  62 S18       29.80F
GILLAM         PTSUNNY   70  34  26 SW13G21   29.86F
$$
                ***SASKATCHEWAN***

CITY           SKY/WX    TMP DP  RH WIND       PRES   REMARKS
ESTEVAN        PTSUNNY   70  32  24 SE13      29.98F
KINDERSLEY     PTSUNNY   82  37  20 SW26G33   29.69F
LLOYDMINSTER   MOSUNNY   81  41  24 SW13G20   29.61F
PRINCE ALBERT  PTSUNNY   75  32  20 SW21G28   29.76F
REGINA         PTSUNNY   75  30  19 SW15G25   29.88F
YORKTON          N/A     72  30  21 S9        29.92F



USA.gov is the U.S. government's official web portal to all federal, state and local government web resources and services.